TimeCET,TemperatureF,Dew PointF,Humidity,Sea Level PressureIn,VisibilityMPH,Wind Direction,Wind SpeedMPH,Gust SpeedMPH,PrecipitationIn,Events,Conditions,WindDirDegrees,DateUTC
12:00 AM,41.0,35.6,81,30.06,5.6,ESE,3.5,-,N/A,,Overcast,110,2012-11-16 23:00:00
12:30 AM,41.0,35.6,81,30.06,6.2,SE,3.5,-,N/A,,Overcast,130,2012-11-16 23:30:00
1:00 AM,41,36,76,30.11,7,SE,6.7,,,,Overcast,140,2012-11-17 00:00:00
1:00 AM,41.0,35.6,81,30.06,6.2,SE,4.6,-,N/A,,Overcast,140,2012-11-17 00:00:00
1:30 AM,41.0,35.6,81,30.06,6.2,SE,4.6,-,N/A,,Overcast,140,2012-11-17 00:30:00
2:00 AM,41.0,35.6,81,30.04,6.2,SE,5.8,-,N/A,,Overcast,140,2012-11-17 01:00:00
2:30 AM,41.0,35.6,81,30.04,6.2,SE,6.9,-,N/A,,Overcast,140,2012-11-17 01:30:00
3:00 AM,41.0,35.6,81,30.04,6.2,SSE,5.8,-,N/A,,Overcast,160,2012-11-17 02:00:00
3:30 AM,41.0,35.6,81,30.04,6.2,SE,5.8,-,N/A,,Overcast,130,2012-11-17 02:30:00
4:00 AM,39.2,35.6,87,30.04,6.2,South,5.8,-,N/A,,Overcast,170,2012-11-17 03:00:00
4:30 AM,39.2,35.6,87,30.04,6.2,SSE,5.8,-,N/A,,Overcast,160,2012-11-17 03:30:00
5:00 AM,39.2,35.6,87,30.01,6.2,SSE,4.6,-,N/A,,Overcast,150,2012-11-17 04:00:00
5:30 AM,39.2,35.6,87,30.01,6.2,SSE,4.6,-,N/A,,Overcast,150,2012-11-17 04:30:00
6:00 AM,39.2,35.6,87,30.01,6.2,SSE,4.6,-,N/A,,Overcast,150,2012-11-17 05:00:00
6:30 AM,39.2,35.6,87,30.01,6.2,SSE,5.8,-,N/A,,Overcast,160,2012-11-17 05:30:00
7:00 AM,40,35,75,30.06,7,SSE,6.7,,,,Overcast,150,2012-11-17 06:00:00
7:00 AM,39.2,35.6,87,30.01,6.2,SSE,5.8,-,N/A,,Overcast,150,2012-11-17 06:00:00
7:30 AM,39.2,33.8,81,30.01,6.2,SSE,5.8,-,N/A,,Overcast,150,2012-11-17 06:30:00
8:00 AM,39.2,33.8,81,30.04,6.2,SSE,6.9,-,N/A,,Overcast,150,2012-11-17 07:00:00
8:30 AM,39.2,33.8,81,30.04,6.2,South,5.8,-,N/A,,Overcast,170,2012-11-17 07:30:00
9:00 AM,39.2,33.8,81,30.01,6.2,South,5.8,-,N/A,,Overcast,170,2012-11-17 08:00:00
9:30 AM,39.2,33.8,81,30.01,6.2,South,8.1,-,N/A,,Overcast,180,2012-11-17 08:30:00
10:00 AM,39.2,33.8,81,30.01,6.2,South,6.9,-,N/A,,Overcast,180,2012-11-17 09:00:00
10:30 AM,39.2,33.8,81,30.01,6.2,South,6.9,-,N/A,,Overcast,170,2012-11-17 09:30:00
11:00 AM,39.2,33.8,81,30.01,6.2,SSE,6.9,-,N/A,,Overcast,160,2012-11-17 10:00:00
11:30 AM,39.2,33.8,81,30.01,6.2,South,6.9,-,N/A,,Overcast,170,2012-11-17 10:30:00
12:00 PM,39.2,33.8,81,30.01,6.2,South,6.9,-,N/A,,Overcast,170,2012-11-17 11:00:00
12:30 PM,39.2,33.8,81,29.98,6.2,SSE,5.8,-,N/A,,Overcast,160,2012-11-17 11:30:00
1:00 PM,40,34,73,30.03,6,SSE,4.5,,,,Overcast,150,2012-11-17 12:00:00
1:00 PM,41.0,33.8,76,29.98,6.2,South,6.9,-,N/A,,Overcast,170,2012-11-17 12:00:00
1:30 PM,41.0,33.8,76,29.98,6.2,South,5.8,-,N/A,,Overcast,170,2012-11-17 12:30:00
2:00 PM,39.2,33.8,81,29.98,6.2,SSE,6.9,-,N/A,,Overcast,150,2012-11-17 13:00:00
2:30 PM,41.0,33.8,76,29.95,6.2,South,5.8,-,N/A,,Overcast,170,2012-11-17 13:30:00
3:00 PM,39.2,33.8,81,29.95,6.2,SSE,6.9,-,N/A,,Overcast,160,2012-11-17 14:00:00
3:30 PM,39.2,33.8,81,29.95,6.2,South,6.9,-,N/A,,Overcast,180,2012-11-17 14:30:00
4:00 PM,39.2,33.8,81,29.95,6.2,SSE,5.8,-,N/A,,Overcast,160,2012-11-17 15:00:00
4:30 PM,39.2,33.8,81,29.95,6.2,South,6.9,-,N/A,,Overcast,180,2012-11-17 15:30:00
5:00 PM,39.2,33.8,81,29.95,6.2,South,5.8,-,N/A,,Overcast,170,2012-11-17 16:00:00
5:30 PM,39.2,33.8,81,29.95,6.2,South,6.9,-,N/A,,Overcast,180,2012-11-17 16:30:00
6:00 PM,39.2,33.8,81,29.95,6.2,South,6.9,-,N/A,,Overcast,170,2012-11-17 17:00:00
6:30 PM,39.2,33.8,81,29.95,6.2,South,8.1,-,N/A,,Overcast,170,2012-11-17 17:30:00
7:00 PM,38,34,79,29.99,7,South,4.5,,,,Overcast,170,2012-11-17 18:00:00
7:00 PM,39.2,33.8,81,29.95,6.2,South,6.9,-,N/A,,Overcast,170,2012-11-17 18:00:00
7:30 PM,39.2,33.8,81,29.95,6.2,South,5.8,-,N/A,,Overcast,170,2012-11-17 18:30:00
8:00 PM,39.2,33.8,81,29.95,6.2,South,6.9,-,N/A,,Overcast,170,2012-11-17 19:00:00
8:30 PM,37.4,33.8,87,29.95,6.2,South,6.9,-,N/A,,Overcast,180,2012-11-17 19:30:00
9:00 PM,37.4,33.8,87,29.95,6.2,South,8.1,-,N/A,,Overcast,170,2012-11-17 20:00:00
9:30 PM,37.4,33.8,87,29.95,6.2,South,8.1,-,N/A,,Overcast,170,2012-11-17 20:30:00
10:00 PM,37.4,33.8,87,29.95,6.2,South,5.8,-,N/A,,Overcast,190,2012-11-17 21:00:00
10:30 PM,37.4,33.8,87,29.95,6.2,South,8.1,-,N/A,,Overcast,180,2012-11-17 21:30:00
11:00 PM,37.4,33.8,87,29.95,5.6,South,6.9,-,N/A,,Overcast,180,2012-11-17 22:00:00
11:30 PM,37.4,33.8,87,29.95,5.6,South,6.9,-,N/A,,Overcast,180,2012-11-17 22:30:00